^^
Station Historical Data
 
Daily Summary for November 13, 2018 Units:  Metric    English   Both
« Previous Day
Next Day »
Daily Weekly Monthly Yearly Custom
  Current: High: Low: Average:
Temperature: 28.8 °C -17.8 °C 17.2 °C 26.7 °C
Dew Point: 2.1 °C -17.8 °C -28.9 °C -13.2 °C
Humidity: 18% Humidity% 1% 9%
Wind Speed: 27.4km/h 0km/h 0km/h 5.6km/h
Wind Gust: 30.6km/h 0km/h - -
WindSSW - - WSW
Pressure: 1009 hPa 0 hPa 1007.3 hPa -
Precipitation: 0 mm      
Historical Graphs
 
 
Tabular Data for November 13, 2018
Time Temperature Dew Point Pressure Wind Wind Speed Wind Gust Humidity Rainfall Rate (Hourly) solar Conditions
-17.8 °C -17.8 °C 0 hPa Calm     Humidity% 0 mm SolarRadiationWatts/m^2 W/m2 Conditions
00:04 22.3 °C -10.8 °C 1011.7 hPa SSW 7.9 km/h 12.9 km/h 10% 0 mm 0.00 W/m2
00:08 22.3 °C -10.8 °C 1011.7 hPa SSW 11.1 km/h 12.9 km/h 10% 0 mm 0.00 W/m2
00:14 22.2 °C -10.9 °C 1011.7 hPa SSW 11.1 km/h 11.3 km/h 10% 0 mm 0.00 W/m2
00:18 22.1 °C -11 °C 1011.7 hPa SSW 9.7 km/h 11.3 km/h 10% 0 mm 0.00 W/m2
00:24 21.9 °C -11.1 °C 1011.7 hPa SSW 7.9 km/h 12.9 km/h 10% 0 mm 0.00 W/m2
00:28 21.8 °C -11.2 °C 1011.7 hPa SSW 9.7 km/h 11.3 km/h 10% 0 mm 0.00 W/m2
00:33 21.8 °C -11.2 °C 1011.7 hPa SSW 11.1 km/h 11.3 km/h 10% 0 mm 0.00 W/m2
00:39 21.7 °C -11.3 °C 1011.7 hPa SSW 9.7 km/h 9.7 km/h 10% 0 mm 0.00 W/m2
00:43 21.6 °C -11.3 °C 1011.7 hPa SSW 9.7 km/h 9.7 km/h 10% 0 mm 0.00 W/m2
00:49 21.4 °C -11.5 °C 1011.7 hPa SSW 7.9 km/h 11.3 km/h 10% 0 mm 0.00 W/m2
00:53 21.4 °C -11.5 °C 1011.7 hPa SSW 11.1 km/h 11.3 km/h 10% 0 mm 0.00 W/m2
00:59 21.6 °C -11.3 °C 1011.7 hPa SW 13 km/h 12.9 km/h 10% 0 mm 0.00 W/m2
01:03 21.5 °C -12.7 °C 1011.7 hPa SW 9.7 km/h 12.9 km/h 9% 0 mm 0.00 W/m2
01:07 21.5 °C -11.4 °C 1011.7 hPa SW 7.9 km/h 11.3 km/h 10% 0 mm 0.00 W/m2
01:14 21.5 °C -11.4 °C 1011.7 hPa SW 7.9 km/h 11.3 km/h 10% 0 mm 0.00 W/m2
01:18 21.4 °C -11.5 °C 1011.7 hPa SW 7.9 km/h 11.3 km/h 10% 0 mm 0.00 W/m2
01:24 21.3 °C -11.6 °C 1011.7 hPa SW 6.4 km/h 9.7 km/h 10% 0 mm 0.00 W/m2
01:28 21.2 °C -11.6 °C 1011.7 hPa SW 6.4 km/h 8 km/h 10% 0 mm 0.00 W/m2
01:34 21.1 °C -11.7 °C 1011.7 hPa SW 1.4 km/h 4.8 km/h 10% 0 mm 0.00 W/m2
01:39 20.9 °C -11.9 °C 1011.7 hPa Calm     10% 0 mm 0.00 W/m2
01:43 20.7 °C -12 °C 1011.7 hPa Calm     10% 0 mm 0.00 W/m2
01:47 20.5 °C -11 °C 1011.7 hPa Calm     11% 0 mm 0.00 W/m2
01:50 20.5 °C -11 °C 1011.7 hPa Calm     11% 0 mm 0.00 W/m2
01:59 20.3 °C -11.2 °C 1011.7 hPa Calm     11% 0 mm 0.00 W/m2
02:03 20.3 °C -12.3 °C 1011.7 hPa Calm     10% 0 mm 0.00 W/m2
02:08 20.2 °C -12.4 °C 1011.7 hPa Calm     10% 0 mm 0.00 W/m2
02:12 20.1 °C -12.5 °C 1011.7 hPa Calm     10% 0 mm 0.00 W/m2
02:18 20 °C -12.6 °C 1011.4 hPa Calm     10% 0 mm 0.00 W/m2
02:23 19.7 °C -12.8 °C 1011.7 hPa Calm     10% 0 mm 0.00 W/m2
02:27 19.6 °C -11.7 °C 1011.7 hPa Calm     11% 0 mm 0.00 W/m2
02:34 19.2 °C -12 °C 1011.7 hPa Calm     11% 0 mm 0.00 W/m2
02:38 19 °C -12.2 °C 1011.7 hPa Calm     11% 0 mm 0.00 W/m2
02:43 18.8 °C -12.3 °C 1011.7 hPa Calm     11% 0 mm 0.00 W/m2
02:47 18.7 °C -12.4 °C 1011.4 hPa Calm     11% 0 mm 0.00 W/m2
02:54 18.7 °C -12.4 °C 1011.4 hPa Calm     11% 0 mm 0.00 W/m2
02:58 18.7 °C -12.4 °C 1011.4 hPa Calm     11% 0 mm 0.00 W/m2
03:03 18.7 °C -11.3 °C 1011.4 hPa Calm     12% 0 mm 0.00 W/m2
03:09 18.9 °C -11.1 °C 1011.1 hPa Calm     12% 0 mm 0.00 W/m2
03:13 18.9 °C -11.1 °C 1011.1 hPa Calm     12% 0 mm 0.00 W/m2
03:18 18.9 °C -11.1 °C 1011.4 hPa Calm     12% 0 mm 0.00 W/m2
03:24 18.7 °C -11.3 °C 1011.4 hPa Calm     12% 0 mm 0.00 W/m2
03:29 18.6 °C -11.4 °C 1011.4 hPa Calm     12% 0 mm 0.00 W/m2
03:33 18.4 °C -11.5 °C 1011.4 hPa Calm     12% 0 mm 0.00 W/m2
03:37 18.3 °C -10.6 °C 1011.4 hPa Calm     13% 0 mm 0.00 W/m2
03:44 18.2 °C -10.7 °C 1011.4 hPa Calm     13% 0 mm 0.00 W/m2
03:49 18.2 °C -10.7 °C 1011.4 hPa Calm     13% 0 mm 0.00 W/m2
03:54 18.2 °C -9.8 °C 1011.4 hPa Calm     14% 0 mm 0.00 W/m2
03:59 18.2 °C -9.8 °C 1011.4 hPa Calm     14% 0 mm 0.00 W/m2
04:03 18.1 °C -9.8 °C 1011.4 hPa Calm     14% 0 mm 0.00 W/m2
04:08 18.1 °C -9.8 °C 1011.4 hPa Calm     14% 0 mm 0.00 W/m2
04:13 18.1 °C -9.8 °C 1011.4 hPa Calm     14% 0 mm 0.00 W/m2
04:19 18.1 °C -9 °C 1011.1 hPa Calm     15% 0 mm 0.00 W/m2
04:24 18 °C -9 °C 1011.1 hPa Calm     15% 0 mm 0.00 W/m2
04:28 17.9 °C -9.1 °C 1011.1 hPa Calm     15% 0 mm 0.00 W/m2
04:33 17.9 °C -9.1 °C 1011.1 hPa Calm     15% 0 mm 0.00 W/m2
04:38 17.8 °C -9.2 °C 1011.4 hPa Calm     15% 0 mm 0.00 W/m2
04:44 17.7 °C -9.3 °C 1011.4 hPa Calm     15% 0 mm 0.00 W/m2
04:49 17.6 °C -8.5 °C 1011.4 hPa Calm     16% 0 mm 0.00 W/m2
04:53 17.7 °C -8.5 °C 1011.4 hPa Calm     16% 0 mm 0.00 W/m2
04:58 17.9 °C -8.3 °C 1011.4 hPa Calm     16% 0 mm 0.00 W/m2
05:04 17.9 °C -8.3 °C 1011.4 hPa Calm     16% 0 mm 0.00 W/m2
05:08 17.8 °C -8.4 °C 1011.4 hPa Calm     16% 0 mm 0.00 W/m2
05:13 17.8 °C -8.4 °C 1011.4 hPa Calm     16% 0 mm 0.00 W/m2
05:19 17.7 °C -8.5 °C 1011.4 hPa Calm     16% 0 mm 0.00 W/m2
05:24 17.6 °C -8.5 °C 1011.4 hPa Calm     16% 0 mm 0.00 W/m2
05:28 17.5 °C -8.6 °C 1011.4 hPa Calm     16% 0 mm 0.00 W/m2
05:34 17.4 °C -8.7 °C 1011.7 hPa Calm     16% 0 mm 0.00 W/m2
05:38 17.4 °C -8.7 °C 1011.7 hPa Calm     16% 0 mm 0.00 W/m2
05:43 17.6 °C -7.8 °C 1011.7 hPa Calm     17% 0 mm 0.00 W/m2
05:48 17.6 °C -8.5 °C 1011.7 hPa Calm     16% 0 mm 0.00 W/m2
05:54 17.4 °C -8.7 °C 1011.7 hPa Calm     16% 0 mm 11.00 W/m2
05:58 17.2 °C -8.1 °C 1011.7 hPa Calm     17% 0 mm 16.00 W/m2
06:02 17.3 °C -8 °C 1012.1 hPa Calm     17% 0 mm 21.00 W/m2
06:09 17.4 °C -7.2 °C 1012.1 hPa Calm     18% 0 mm 21.00 W/m2
06:14 17.4 °C -7.2 °C 1012.1 hPa Calm     18% 0 mm 32.00 W/m2
06:18 17.5 °C -7.8 °C 1012.1 hPa Calm     17% 0 mm 40.00 W/m2
06:24 17.4 °C -7.9 °C 1012.1 hPa Calm     17% 0 mm 53.00 W/m2
06:29 17.6 °C -7.8 °C 1012.1 hPa Calm     17% 0 mm 76.00 W/m2
06:33 17.7 °C -7.7 °C 1012.1 hPa Calm     17% 0 mm 93.00 W/m2
06:39 18 °C -7.4 °C 1012.4 hPa Calm     17% 0 mm 118.00 W/m2
06:44 18.3 °C -7.2 °C 1012.4 hPa Calm     17% 0 mm 116.00 W/m2
06:48 18.7 °C -6.1 °C 1012.4 hPa Calm     18% 0 mm 105.00 W/m2
06:54 19.2 °C -7.2 °C 1012.4 hPa Calm     16% 0 mm 178.00 W/m2
06:58 19.4 °C -7.1 °C 1012.4 hPa Calm     16% 0 mm 237.00 W/m2
07:03 19.6 °C -6.9 °C 1012.4 hPa Calm     16% 0 mm 265.00 W/m2
07:09 19.9 °C -5.9 °C 1012.4 hPa Calm     17% 0 mm 306.00 W/m2
07:13 20.3 °C -5.6 °C 1012.4 hPa Calm     17% 0 mm 278.00 W/m2
07:17 20.5 °C -6.2 °C 1012.4 hPa Calm     16% 0 mm 121.00 W/m2
07:22 20.6 °C -6.1 °C 1012.4 hPa Calm     16% 0 mm 109.00 W/m2
07:29 20.8 °C -6 °C 1012.8 hPa Calm     16% 0 mm 186.00 W/m2
07:33 20.9 °C -5.9 °C 1012.8 hPa Calm     16% 0 mm 276.00 W/m2
07:38 20.9 °C -5.9 °C 1012.8 hPa Calm     16% 0 mm 123.00 W/m2
07:42 21 °C -5.8 °C 1012.4 hPa Calm     16% 0 mm 100.00 W/m2
07:48 21.1 °C -5.7 °C 1012.4 hPa Calm     16% 0 mm 213.00 W/m2
07:53 21.3 °C -5.5 °C 1012.8 hPa Calm     16% 0 mm 417.00 W/m2
07:59 21.6 °C -5.3 °C 1012.4 hPa Calm     16% 0 mm 315.00 W/m2
08:04 21.8 °C -5.1 °C 1012.4 hPa Calm     16% 0 mm 420.00 W/m2
08:09 22.1 °C -4.9 °C 1012.8 hPa Calm     16% 0 mm 436.00 W/m2
08:13 22.2 °C -4.8 °C 1012.4 hPa Calm     16% 0 mm 452.00 W/m2
08:19 22.6 °C -5.4 °C 1012.4 hPa Calm     15% 0 mm 478.00 W/m2
08:24 22.9 °C -5.1 °C 1012.4 hPa Calm     15% 0 mm 496.00 W/m2
08:28 23.1 °C -5.9 °C 1012.4 hPa Calm     14% 0 mm 508.00 W/m2
08:33 23.4 °C -5.6 °C 1012.4 hPa Calm     14% 0 mm 524.00 W/m2
08:39 23.9 °C -6.2 °C 1012.4 hPa SW 7.9 km/h 9.7 km/h 13% 0 mm 545.00 W/m2
08:43 24.1 °C -6 °C 1012.4 hPa SW 6.4 km/h 12.9 km/h 13% 0 mm 561.00 W/m2
08:49 24.3 °C -6.9 °C 1012.4 hPa SW 6.4 km/h 8 km/h 12% 0 mm 575.00 W/m2
08:53 24.6 °C -6.7 °C 1012.4 hPa SW 4.7 km/h 8 km/h 12% 0 mm 587.00 W/m2
08:59 24.9 °C -7.6 °C 1012.4 hPa SW 6.4 km/h 8 km/h 11% 0 mm 606.00 W/m2
09:03 25.2 °C -7.4 °C 1012.4 hPa SW 9.7 km/h 11.3 km/h 11% 0 mm 619.00 W/m2
09:09 25.5 °C -8.4 °C 1012.4 hPa SW 7.9 km/h 11.3 km/h 10% 0 mm 638.00 W/m2
09:13 25.7 °C -8.2 °C 1012.4 hPa SSW 7.9 km/h 14.5 km/h 10% 0 mm 650.00 W/m2
09:18 25.9 °C -8.1 °C 1012.4 hPa SW 13 km/h 16.1 km/h 10% 0 mm 663.00 W/m2
09:24 26.2 °C -9.2 °C 1012.1 hPa SW 7.9 km/h 14.5 km/h 9% 0 mm 684.00 W/m2
09:28 26.2 °C -10.7 °C 1012.1 hPa SW 9.7 km/h 12.9 km/h 8% 0 mm 693.00 W/m2
09:34 26.4 °C -10.5 °C 1012.1 hPa SW 9.7 km/h 14.5 km/h 8% 0 mm 712.00 W/m2
09:38 26.6 °C -10.4 °C 1012.1 hPa SW 3.2 km/h 12.9 km/h 8% 0 mm 726.00 W/m2
09:44 26.8 °C -10.2 °C 1012.1 hPa SW 7.9 km/h 11.3 km/h 8% 0 mm 745.00 W/m2
09:49 27.1 °C -11.7 °C 1012.1 hPa SW 6.4 km/h 11.3 km/h 7% 0 mm 775.00 W/m2
09:53 27.3 °C -11.5 °C 1012.1 hPa SW 9.7 km/h 14.5 km/h 7% 0 mm 793.00 W/m2
09:59 27.2 °C -11.6 °C 1012.1 hPa SW 7.9 km/h 11.3 km/h 7% 0 mm 279.00 W/m2
10:03 27.2 °C -11.6 °C 1012.1 hPa SW 9.7 km/h 9.7 km/h 7% 0 mm 459.00 W/m2
10:09 27.3 °C -11.5 °C 1012.1 hPa SW 4.7 km/h 9.7 km/h 7% 0 mm 807.00 W/m2
10:13 27.7 °C -11.2 °C 1012.1 hPa SW 6.4 km/h 9.7 km/h 7% 0 mm 826.00 W/m2
10:17 27.9 °C -13 °C 1012.1 hPa Calm     6% 0 mm 833.00 W/m2
10:24 28.3 °C -12.7 °C 1012.1 hPa Calm     6% 0 mm 846.00 W/m2
10:28 28.5 °C -12.6 °C 1012.1 hPa Calm     6% 0 mm 867.00 W/m2
10:34 28.6 °C -14.8 °C 1012.1 hPa Calm     5% 0 mm 925.00 W/m2
10:39 28.7 °C -14.7 °C 1011.7 hPa Calm     5% 0 mm 965.00 W/m2
10:43 29.1 °C -14.4 °C 1011.7 hPa Calm     5% 0 mm 896.00 W/m2
10:48 29.6 °C -16.7 °C 1011.7 hPa Calm     4% 0 mm 988.00 W/m2
10:52 30.2 °C -16.3 °C 1011.7 hPa Calm     4% 0 mm 981.00 W/m2
10:59 30.4 °C -16.2 °C 1011.7 hPa SW 4.7 km/h 9.7 km/h 4% 0 mm 981.00 W/m2
11:01 30.5 °C -16.1 °C 1011.7 hPa SW 4.7 km/h 8 km/h 4% 0 mm 747.00 W/m2
11:07 30.4 °C -16.2 °C 1011.7 hPa Calm   4.8 km/h 4% 0 mm 680.00 W/m2
11:11 30.5 °C -19.5 °C 1011.7 hPa Calm     3% 0 mm 958.00 W/m2
11:18 30.6 °C -19.5 °C 1011.7 hPa Calm   8 km/h 3% 0 mm 1011.00 W/m2
11:24 30.9 °C -19.3 °C 1011.4 hPa SW 6.4 km/h 14.5 km/h 3% 0 mm 933.00 W/m2
11:28 31.1 °C -19.1 °C 1011.4 hPa SW 4.7 km/h 8 km/h 3% 0 mm 983.00 W/m2
11:32 31.4 °C -23.6 °C 1011.4 hPa WSW 9.7 km/h 12.9 km/h 2% 0 mm 979.00 W/m2
11:39 31.3 °C -23.6 °C 1011.4 hPa WSW 6.4 km/h 8 km/h 2% 0 mm 909.00 W/m2
11:43 31.4 °C -23.6 °C 1011.4 hPa WSW 7.9 km/h 8 km/h 2% 0 mm 963.00 W/m2
11:47 31.6 °C -23.4 °C 1011.4 hPa WSW 4.7 km/h 6.4 km/h 2% 0 mm 963.00 W/m2
11:53 31.9 °C -23.3 °C 1011.4 hPa WSW 4.7 km/h 9.7 km/h 2% 0 mm 969.00 W/m2
11:59 31.9 °C -23.3 °C 1011.1 hPa WSW 7.9 km/h 9.7 km/h 2% 0 mm 972.00 W/m2
12:04 32 °C -23.2 °C 1011.1 hPa Calm     2% 0 mm 976.00 W/m2
12:08 32.5 °C -22.9 °C 1011.1 hPa Calm   8 km/h 2% 0 mm 976.00 W/m2
12:14 32.7 °C -22.7 °C 1011.1 hPa WSW 6.4 km/h 11.3 km/h 2% 0 mm 981.00 W/m2
12:18 32.7 °C -22.7 °C 1010.7 hPa WSW 9.7 km/h 9.7 km/h 2% 0 mm 981.00 W/m2
12:24 32.6 °C -22.8 °C 1010.7 hPa WSW 1.4 km/h 12.9 km/h 2% 0 mm 570.00 W/m2
12:29 32.4 °C -22.9 °C 1010.7 hPa Calm     2% 0 mm 969.00 W/m2
12:33 32.7 °C -22.7 °C 1010.7 hPa Calm     2% 0 mm 798.00 W/m2
12:39 33.1 °C -22.5 °C 1010.7 hPa WSW 7.9 km/h 12.9 km/h 2% 0 mm 717.00 W/m2
12:44 32.9 °C -22.6 °C 1010.4 hPa Calm   6.4 km/h 2% 0 mm 385.00 W/m2
12:48 32.8 °C -22.7 °C 1010.4 hPa WSW 1.4 km/h 8 km/h 2% 0 mm 364.00 W/m2
12:54 32.8 °C -22.7 °C 1010.4 hPa Calm     2% 0 mm 329.00 W/m2
12:59 33.2 °C -22.4 °C 1010.4 hPa Calm     2% 0 mm 1208.00 W/m2
13:03 33.6 °C -17.5 °C 1010 hPa Calm     3% 0 mm 1048.00 W/m2
13:08 33.8 °C -17.3 °C 1010 hPa Calm   3.2 km/h 3% 0 mm 694.00 W/m2
13:14 33.8 °C -17.3 °C 1010 hPa West 4.7 km/h 9.7 km/h 3% 0 mm 944.00 W/m2
13:18 34 °C -17.2 °C 1010 hPa West 9.7 km/h 12.9 km/h 3% 0 mm 650.00 W/m2
13:23 34.1 °C -17.1 °C 1010 hPa WNW 7.9 km/h 12.9 km/h 3% 0 mm 759.00 W/m2
13:29 33.7 °C -17.4 °C 1010 hPa Calm     3% 0 mm 352.00 W/m2
13:33 33.7 °C -17.4 °C 1009.7 hPa WNW 6.4 km/h 20.9 km/h 3% 0 mm 353.00 W/m2
13:37 33.6 °C -14 °C 1009.7 hPa WNW 9.7 km/h 11.3 km/h 4% 0 mm 371.00 W/m2
13:43 33.6 °C -14 °C 1009.7 hPa WNW 11.1 km/h 16.1 km/h 4% 0 mm 394.00 W/m2
13:49 33.7 °C -13.9 °C 1009.7 hPa WNW 6.4 km/h 9.7 km/h 4% 0 mm 504.00 W/m2
13:53 33.7 °C -17.4 °C 1009.7 hPa Calm   11.3 km/h 3% 0 mm 533.00 W/m2
13:57 33.7 °C -17.4 °C 1009.4 hPa WNW 4.7 km/h 16.1 km/h 3% 0 mm 427.00 W/m2
14:02 33.8 °C -17.3 °C 1009.4 hPa WNW 11.1 km/h 11.3 km/h 3% 0 mm 550.00 W/m2
14:08 34.1 °C -17.1 °C 1009.4 hPa WNW 3.2 km/h 8 km/h 3% 0 mm 679.00 W/m2
14:14 34.3 °C -17 °C 1009.4 hPa Calm     3% 0 mm 721.00 W/m2
14:18 34.3 °C -21.7 °C 1009 hPa Calm   8 km/h 2% 0 mm 788.00 W/m2
14:23 34.8 °C -21.4 °C 1009 hPa WNW 6.4 km/h 11.3 km/h 2% 0 mm 529.00 W/m2
14:27 34.8 °C -21.4 °C 1009 hPa WNW 9.7 km/h 16.1 km/h 2% 0 mm 587.00 W/m2
14:33 34.8 °C -16.7 °C 1009 hPa WNW 1.4 km/h 12.9 km/h 3% 0 mm 504.00 W/m2
14:39 34.7 °C -16.7 °C 1009 hPa Calm     3% 0 mm 417.00 W/m2
14:44 34.6 °C -16.8 °C 1009 hPa Calm     3% 0 mm 403.00 W/m2
14:48 34.7 °C -16.7 °C 1009 hPa WNW 9.7 km/h 19.3 km/h 3% 0 mm 916.00 W/m2
14:54 35.1 °C -16.5 °C 1008.7 hPa WNW 16.3 km/h 16.1 km/h 3% 0 mm 1055.00 W/m2
14:58 35.1 °C -16.5 °C 1008.7 hPa WNW 9.7 km/h 12.9 km/h 3% 0 mm 640.00 W/m2
15:02 34.9 °C -16.6 °C 1008.7 hPa NW 13 km/h 20.9 km/h 3% 0 mm 918.00 W/m2
15:08 34.6 °C -16.8 °C 1008.7 hPa WNW 4.7 km/h 11.3 km/h 3% 0 mm 670.00 W/m2
15:13 34.4 °C -16.9 °C 1008.4 hPa WNW 16.3 km/h 17.7 km/h 3% 0 mm 710.00 W/m2
15:17 34.6 °C -16.8 °C 1008.4 hPa WNW 6.4 km/h 12.9 km/h 3% 0 mm 895.00 W/m2
15:23 35.3 °C -16.3 °C 1008.4 hPa WNW 11.1 km/h 12.9 km/h 3% 0 mm 765.00 W/m2
15:27 35.3 °C -16.3 °C 1008.4 hPa WNW 6.4 km/h 11.3 km/h 3% 0 mm 475.00 W/m2
15:33 34.9 °C -16.6 °C 1008.4 hPa WNW 7.9 km/h 9.7 km/h 3% 0 mm 615.00 W/m2
15:37 34.6 °C -16.8 °C 1008.4 hPa WNW 7.9 km/h 9.7 km/h 3% 0 mm 260.00 W/m2
15:42 34.4 °C -16.9 °C 1008.4 hPa West 9.7 km/h 17.7 km/h 3% 0 mm 279.00 W/m2
15:46 34.5 °C -16.9 °C 1008 hPa West 7.9 km/h 9.7 km/h 3% 0 mm 313.00 W/m2
15:52 34.8 °C -16.7 °C 1008 hPa West 4.7 km/h 6.4 km/h 3% 0 mm 308.00 W/m2
15:58 35.6 °C -20.9 °C 1008 hPa West 11.1 km/h 14.5 km/h 2% 0 mm 824.00 W/m2
16:02 35.8 °C -20.8 °C 1008 hPa West 4.7 km/h 12.9 km/h 2% 0 mm 788.00 W/m2
16:08 35.9 °C -20.7 °C 1008 hPa West 3.2 km/h 16.1 km/h 2% 0 mm 759.00 W/m2
16:12 35.8 °C -20.8 °C 1008 hPa West 6.4 km/h 19.3 km/h 2% 0 mm 693.00 W/m2
16:19 35.8 °C -20.8 °C 1008 hPa West 4.7 km/h 14.5 km/h 2% 0 mm 635.00 W/m2
16:21 35.8 °C -20.8 °C 1008 hPa Calm   9.7 km/h 2% 0 mm 652.00 W/m2
16:29 35.9 °C -20.7 °C 1007.7 hPa West 11.1 km/h 12.9 km/h 2% 0 mm 555.00 W/m2
16:33 35.8 °C -20.8 °C 1007.7 hPa West 4.7 km/h 8 km/h 2% 0 mm 524.00 W/m2
16:38 35.8 °C -20.8 °C 1007.7 hPa Calm     2% 0 mm 429.00 W/m2
16:43 35.8 °C -20.8 °C 1007.7 hPa Calm     2% 0 mm 357.00 W/m2
16:49 35.8 °C -20.8 °C 1007.7 hPa West 6.4 km/h 11.3 km/h 2% 0 mm 401.00 W/m2
16:53 35.7 °C -20.8 °C 1007.7 hPa West 6.4 km/h 11.3 km/h 2% 0 mm 434.00 W/m2
16:59 35.6 °C -20.9 °C 1007.3 hPa West 7.9 km/h 9.7 km/h 2% 0 mm 274.00 W/m2
17:03 35.4 °C -21 °C 1007.3 hPa Calm     2% 0 mm 209.00 W/m2
17:08 35.3 °C -21.1 °C 1007.3 hPa Calm     2% 0 mm 120.00 W/m2
17:14 35.1 °C -21.2 °C 1007.3 hPa West 6.4 km/h 11.3 km/h 2% 0 mm 125.00 W/m2
17:18 35 °C -21.3 °C 1007.3 hPa West 6.4 km/h 12.9 km/h 2% 0 mm 151.00 W/m2
17:24 35.1 °C -21.2 °C 1007.3 hPa West 3.2 km/h 4.8 km/h 2% 0 mm 285.00 W/m2
17:28 35.2 °C -21.2 °C 1007.3 hPa West 4.7 km/h 9.7 km/h 2% 0 mm 230.00 W/m2
17:34 35.2 °C -21.2 °C 1007.3 hPa West 7.9 km/h 11.3 km/h 2% 0 mm 141.00 W/m2
17:39 35.1 °C -21.2 °C 1007.3 hPa West 4.7 km/h 6.4 km/h 2% 0 mm 123.00 W/m2
17:43 35.2 °C -21.2 °C 1007.3 hPa West 7.9 km/h 9.7 km/h 2% 0 mm 111.00 W/m2
17:49 35.2 °C -21.2 °C 1007.3 hPa West 13 km/h 12.9 km/h 2% 0 mm 100.00 W/m2
17:53 35.1 °C -21.2 °C 1007.3 hPa West 7.9 km/h 14.5 km/h 2% 0 mm 95.00 W/m2
17:59 35.1 °C -21.2 °C 1007.3 hPa West 7.9 km/h 14.5 km/h 2% 0 mm 171.00 W/m2
18:03 35.1 °C -21.2 °C 1007.3 hPa WSW 16.3 km/h 20.9 km/h 2% 0 mm 86.00 W/m2
18:07 35 °C -28.9 °C 1007.3 hPa SW 16.3 km/h 22.5 km/h 1% 0 mm 81.00 W/m2
18:13 34.8 °C -21.4 °C 1007.3 hPa SSW 13 km/h 27.4 km/h 2% 0 mm 74.00 W/m2
18:18 34.6 °C -21.5 °C 1007.3 hPa SSW 20.9 km/h 25.7 km/h 2% 0 mm 70.00 W/m2
18:24 34.2 °C -21.8 °C 1007.3 hPa South 22.7 km/h 30.6 km/h 2% 0 mm 62.00 W/m2
18:28 33.9 °C -22 °C 1007.3 hPa South 19.5 km/h 29 km/h 2% 0 mm 54.00 W/m2
18:34 33.7 °C -17.4 °C 1007.7 hPa South 24.1 km/h 25.7 km/h 3% 0 mm 58.00 W/m2
18:38 33.7 °C -17.4 °C 1007.7 hPa South 17.7 km/h 24.1 km/h 3% 0 mm 76.00 W/m2
18:44 33.7 °C -17.4 °C 1007.7 hPa South 27.4 km/h 29 km/h 3% 0 mm 44.00 W/m2
18:48 33.5 °C -17.5 °C 1007.7 hPa South 17.7 km/h 24.1 km/h 3% 0 mm 23.00 W/m2
18:54 33.1 °C -17.8 °C 1007.7 hPa South 19.5 km/h 27.4 km/h 3% 0 mm 14.00 W/m2
18:58 32.9 °C -17.9 °C 1007.7 hPa South 17.7 km/h 29 km/h 3% 0 mm 11.00 W/m2
19:04 32.8 °C -14.5 °C 1007.7 hPa South 20.9 km/h 29 km/h 4% 0 mm 9.00 W/m2
19:06 32.7 °C -14.6 °C 1008 hPa South 19.5 km/h 30.6 km/h 4% 0 mm 7.00 W/m2
19:12 32.5 °C -14.8 °C 1008 hPa SSW 25.9 km/h 32.2 km/h 4% 0 mm 5.00 W/m2
19:19 32.3 °C -14.9 °C 1008 hPa South 33.8 km/h 35.4 km/h 4% 0 mm 0.00 W/m2
19:23 32.1 °C -10 °C 1008 hPa South 17.7 km/h 24.1 km/h 6% 0 mm 0.00 W/m2
19:29 31.5 °C 0.8 °C 1008.4 hPa SSW 25.9 km/h 25.7 km/h 14% 0 mm 0.00 W/m2
19:33 31.1 °C 2.3 °C 1008.4 hPa SSW 28.8 km/h 32.2 km/h 16% 0 mm 0.00 W/m2
19:37 30.6 °C 1.9 °C 1008.4 hPa SSW 19.5 km/h 27.4 km/h 16% 0 mm 0.00 W/m2
19:43 30.2 °C 2.4 °C 1008.4 hPa SSW 25.9 km/h 27.4 km/h 17% 0 mm 0.00 W/m2
19:49 29.9 °C 2.2 °C 1008.4 hPa SSW 27.4 km/h 27.4 km/h 17% 0 mm 0.00 W/m2
19:53 29.8 °C 2.1 °C 1008.7 hPa SSW 20.9 km/h 29 km/h 17% 0 mm 0.00 W/m2
19:59 29.6 °C 2 °C 1008.7 hPa SSW 24.1 km/h 25.7 km/h 17% 0 mm 0.00 W/m2
20:03 29.4 °C 2.6 °C 1008.7 hPa SSW 16.3 km/h 25.7 km/h 18% 0 mm 0.00 W/m2
20:09 29.1 °C 2.4 °C 1008.7 hPa SSW 24.1 km/h 27.4 km/h 18% 0 mm 0.00 W/m2
20:14 28.9 °C 2.2 °C 1009 hPa SSW 25.9 km/h 25.7 km/h 18% 0 mm 0.00 W/m2
20:18 28.8 °C 2.1 °C 1009 hPa SSW 27.4 km/h 30.6 km/h 18% 0 mm 0.00 W/m2
Canyon Roadhouse, Fishriver Canyon, Namibia
Compliments of Weather Underground - 3 mb